map of ZAG home
ZAG - Airport
Location
City:  Zagreb, Medimurje, Croatia
Name:Franjo Tudman Airport
Old (Alt.):Zagreb International, Pleso Airport
ICAO:LDZA
IATA:ZAG

Details
Type:Airport (Aerodrome, Airfield)
Use:Public/Civil, International (customs port of entry)
Latitude:4544'35"N (45.742931)
Longitude:1604'08"E (16.068778)
Datum:WGS 1984
Elevation:353 ft (108 m)
Variation:4.20E (WMM2015v2 magnetic declination)
0.14 annual change
Runways:1
Longest:10669 × 148 ft (3252 × 45 m), paved

Time
Time Zone:UTC+1 (DST+2)
Local Time:

Weather
METAR:LDZA 041400Z 08007KT 040V120 9999 SCT040 06/M02 Q1028 TEMPO 05010KT
TAF:LDZA 041125Z 0412/0512 05004KT 9999 FEW030 TX06/0413Z TN00/0504Z
TEMPO 0412/0418 05010KT

Related Locations
Nearby:
Farthest:CHT: 11810 mi / 19007 km
Waitangi [Tuuta], CIT, NZ

Find:

   beyond  
but within

Other Information
Maps:
NOTAMs:
Links:
Sources:

  
  • flag of Croatia
  • flag of Medimurje
  • flag of Zagreb
  

Sectional Chart

Flight Planning
at skyvector.com

Satellite Image

Google Maps Satellite view

 

Copyright © 2004-2019 Karl L. Swartz. All rights reserved.
The Great Circle Mapper name and logo are trademarks of the Great Circle Mapper.
All other trademarks mentioned herein belong to their respective owners.
Please see credits for attibutions and further copyright information.

  Follow gcmap on Facebook Follow gcmap on Twitter GCmap on LinkedIn

hCard Microformat

Geo Microformat